星链-11377 (STARLINK-11377)

导读 | 星芒AI

STARLINK-11377 是 SpaceX Starlink 项目中的一颗低轨通信卫星,属于第 11 批发射的 Starlink 卫星群。该卫星于 2020 年 11 月 12 日由猎鹰 9 号火箭送入近地轨道,旨在为全球提供高速互联网服务。它运行在约 550 公里的高度,设计寿命约 5 年,并配备推进系统以进行轨道调整和任务结束后主动离轨。STARLINK-11377 与其他 Starlink 卫星协同工作,提升网络覆盖和连接稳定性。

基本信息
目录编号:
62013
目录名称:
STARLINK-11377
国际标识:
2024-213F
轨道中心:
EARTH
卫星名称:
星链-11377
卫星全名:
星链-11377 (STARLINK-11377)
卫星状态:
在轨 (已飞行345 天)
发射日期:
2024-11-18 UTC
国别 :
美国 (US)
星等 :
--
轨道信息
数据来源 国际轨道数据
星历时间: 2025-10-28T21:20:52+0800
20小时前
查看轨道信息
半长轴: 6737.75km
偏心率: 0.0001989
轨道倾角: 53.157°
近地点辐角 127.867°
升交点赤经 332.524°
平近点角 232.252°
近地点: 358.274km
远地点: 360.956km
周期: 91.734分钟
每日圈数: 15.697499
详细信息
固有亮度:
5
最大亮度:
2.5
卫星平台:
Starlink V1.0
覆盖范围:
全球
运营商:
太空探索技术公司
运营商所在国:
美国
制造商(研发单位):
太空探索技术公司
制造商所在国:
美国
使用方式:
暂无
卫星简介
Starlink 计划是 SpaceX 推出的全球卫星互联网项目,通过发射低轨道卫星,为全球尤其是偏远地区提供高速、低延迟的互联网服务。自 2019 年起,Starlink 已部署数千颗卫星,旨在缩小全球数字鸿沟,推动互联网普及。该项目还为军事、航空等行业提供通信支持,带来广泛经济效益。
2D轨道图
3D轨道图
轨道高度分析图
轨道倾角分析图
轨道综合分析图
查看轨道综合分析图